User: anonymous
Location: Unspecified
(0.0000°N, 0.0000°E)
Time: 20:15:33
(UTC+00:00)
Language:

COSMOS 2468 - Orbit

View from above orbital plane
View from above orbital plane
View from above satellite
View from above satellite

Ground track
Ground track

The orbit data is extracted from the following two-line orbital elements,

1 37154U 10043C   14265.14379467  .00000017  00000-0  49189-4 0  2689
2 37154 082.4599 225.1537 0013617 319.7594 040.2476 12.42888222183194
Epoch (UTC): 22 September 2014 03:27:03
Eccentricity: 0.0013617
inclination: 82.4599°
perigee height: 1483 km
apogee height: 1505 km
right ascension of ascending node: 225.1537°
argument of perigee: 319.7594°
revolutions per day: 12.42888222
mean anomaly at epoch: 40.2476°
orbit number at epoch: 18319

The dashed part of the orbit path shows where the satellite is in the earth's shadow,  

DLR